This is the latest recevied weather packets stored in our database for station/object K3RUP-1. If no packets are shown the sender has not sent any weather packets the latest 10 day(s).
| Time | Temp. | Humidity | Pressure | Rain* | Wind** | Luminosity | Snow |
|---|---|---|---|---|---|---|---|
| 1777931450 | 21.67° C | 47% | 1009.4 hPa | 0 mm | - | 48 W/m² | - |
| 1777931145 | 22.22° C | 46% | 1009.3 hPa | 0 mm | - | 69 W/m² | - |
| 1777930842 | 22.22° C | 46% | 1009.4 hPa | 0 mm | - | 149 W/m² | - |
| 1777930538 | 22.22° C | 44% | 1009.3 hPa | 0 mm | - | 69 W/m² | - |
| 1777930236 | 22.22° C | 45% | 1009.5 hPa | 0 mm | - | 83 W/m² | - |
| 1777929932 | 22.78° C | 45% | 1009.5 hPa | 0 mm | - | 170 W/m² | - |
| 1777929629 | 22.78° C | 43% | 1009.4 hPa | 0 mm | - | 147 W/m² | - |
| 1777929326 | 22.78° C | 43% | 1009.5 hPa | 0 mm | - | 78 W/m² | - |
| 1777929023 | 22.78° C | 43% | 1009.4 hPa | 0 mm | - | 100 W/m² | - |
| 1777928720 | 23.33° C | 41% | 1009.4 hPa | 0 mm | - | 367 W/m² | - |
| 1777928417 | 23.33° C | 42% | 1009.5 hPa | 0 mm | - | 409 W/m² | - |
| 1777928115 | 23.33° C | 40% | 1009.6 hPa | 0 mm | - | 399 W/m² | - |
| 1777927812 | 23.33° C | 40% | 1009.7 hPa | 0 mm | - | 343 W/m² | - |
| 1777927510 | 23.89° C | 39% | 1009.7 hPa | 0 mm | - | 369 W/m² | - |
| 1777927209 | 23.89° C | 40% | 1009.7 hPa | 0 mm | - | 425 W/m² | - |
| 1777926907 | 23.89° C | 40% | 1009.7 hPa | 0 mm | - | 420 W/m² | - |
| 1777926603 | 23.89° C | 40% | 1009.7 hPa | 0 mm | - | 481 W/m² | - |
| 1777926299 | 23.89° C | 40% | 1009.9 hPa | 0 mm | - | 491 W/m² | - |
| 1777925996 | 23.89° C | 39% | 1009.9 hPa | 0 mm | - | 509 W/m² | - |
| 1777925693 | 24.44° C | 39% | 1009.8 hPa | 0 mm | - | 531 W/m² | - |
| 1777925390 | 23.89° C | 41% | 1010 hPa | 0 mm | - | 545 W/m² | - |
| 1777925087 | 23.89° C | 39% | 1009.8 hPa | 0 mm | - | 547 W/m² | - |
| 1777924784 | 23.89° C | 40% | 1009.9 hPa | 0 mm | - | 514 W/m² | - |
| 1777924480 | 23.89° C | 37% | 1010.1 hPa | 0 mm | - | 503 W/m² | - |
| 1777924176 | 23.89° C | 39% | 1010.1 hPa | 0 mm | - | 576 W/m² | - |
* Rain latest hour (hover to see other rain measurements)
** Current wind speed in m/s (hover to see current wind gust speed)